[[{"header":{"parameterUnit":"m.s-1","parameterCategory":1,"la1":30.2991,"la2":30.254,"lo1":-89.0895,"lo2":-89.0444,"dy":0.0017,"dx":0.0017,"nx":28,"ny":28,"refTime":"2025-01-19T09:00:00:Z","depth":0,"parameterNumber":2,"parameterNumberName":"U-component_of_WINDS"},"data":[0,0,0,0,0,0,0,0,0,0,0,0,0,0,0,0,0,0,0,0,0,0,0,0,0,0,0,0,0,0,0,0,0,0,0,0,0,0,0,0,0,0,0,0,0,0,0,0,0,0,0,0,0,0,0,0,0,0,2.6752,2.6752,0,2.6799,2.6799,2.68,2.6745,2.6743,2.6741,2.6739,2.6793,2.6796,2.6799,0,0,0,0,0,0,0,0,0,0,0,0,0,2.662,2.6622,2.6752,2.6752,2.6753,2.6799,2.68,2.68,2.6745,2.6743,2.674,2.6738,2.6792,2.6796,2.68,0,0,0,0,0,0,0,0,0,0,0,0,0,2.6673,2.6623,2.6752,2.6731,2.673,2.6799,2.68,2.68,2.6746,2.6743,2.674,2.6737,2.679,2.6795,2.68,2.6894,0,0,2.6816,2.6818,0,0,0,0,0,0,0,0,2.667,2.6678,2.6733,2.6732,2.6731,2.6763,2.6773,2.6832,2.6747,2.674,2.6739,2.6735,2.6786,2.6791,2.6807,2.6896,2.6899,2.6816,2.6819,2.6822,2.6823,0,0,0,0,0,0,0,2.6667,2.6676,2.6771,2.6734,2.6733,2.6721,2.6725,2.6784,2.678,2.674,2.6736,2.6742,2.6785,2.6802,2.6808,2.69,2.6816,2.6821,2.6824,2.6826,2.7069,2.7073,0,0,0,0,0,0,2.6664,2.6673,2.6769,2.6772,2.6692,2.6726,2.6731,2.6756,2.6779,2.6779,2.6745,2.674,2.6795,2.6802,2.6809,2.6921,2.6821,2.6826,2.6829,2.7066,2.707,2.7074,0,0,0,0,0,0,2.6662,2.6674,2.6767,2.6721,2.6732,2.6732,2.676,2.6758,2.6776,2.6783,2.6782,2.6763,2.6793,2.6802,2.6873,2.6922,2.6828,2.6833,2.7062,2.7067,2.7072,2.7145,0,0,0,0,0,0,2.6658,2.6673,2.6707,2.6723,2.6735,2.6829,2.6763,2.6762,2.6784,2.6777,2.68,2.68,2.6791,2.6866,2.6878,2.6927,2.6837,2.7057,2.7064,2.707,2.7138,2.7152,2.7163,0,0,0,0,0,2.6654,2.6727,2.6709,2.6721,2.6777,2.6831,2.6839,2.6825,2.6788,2.6823,2.6828,2.68,2.6915,2.6874,2.6887,2.6938,2.7054,2.7062,2.707,2.7132,2.7149,2.7163,0,0,0,0,0,0,2.6719,2.6728,2.6709,2.6789,2.6809,2.6822,2.6866,2.6843,2.6876,2.6869,2.6852,2.6858,2.6933,2.6943,2.6897,2.7031,2.6979,2.699,2.7021,2.7037,2.705,2.7046,2.6841,0,0,0,0,0,2.6742,2.6783,2.679,2.686,2.6871,2.6867,2.689,2.6877,2.6899,2.6908,2.6918,2.6941,2.6983,2.7011,2.7049,2.7139,2.7144,2.7181,2.7194,2.7204,2.7214,2.7263,2.728,2.7099,2.7099,2.7099,0,0,2.6792,2.6802,2.6829,2.6873,2.6888,2.6933,2.6875,2.6925,2.6958,2.6916,2.6983,2.6991,2.7017,2.7098,2.7134,2.7108,2.7265,2.7214,2.7222,2.7226,2.7273,2.729,2.7305,2.7104,2.7103,2.7103,0,0,2.6904,2.6916,2.6975,2.6991,2.7013,2.7009,2.7024,2.704,2.7043,2.711,2.7079,2.712,2.7192,2.7211,2.7231,2.7351,2.7327,2.7364,2.7431,2.7479,2.7494,2.7506,2.755,2.7566,2.7374,2.7374,2.7374,0,2.6963,2.7027,2.7009,2.7061,2.7082,2.7044,2.7106,2.7122,2.7157,2.7173,2.7143,2.7232,2.7247,2.7332,2.7361,2.7378,2.7396,2.7362,2.7493,2.7505,2.7517,2.7558,2.7575,2.7379,2.7378,2.7378,2.7377,0,2.7099,2.7145,2.719,2.7223,2.7249,2.7306,2.7297,2.7327,2.7312,2.7313,2.7382,2.7398,2.7439,2.7458,2.7445,2.7542,2.7526,2.7495,2.7442,2.7539,2.7578,2.7593,2.7385,2.7383,2.7382,2.7381,0,0,2.7254,2.7275,2.7293,2.7307,2.7329,2.7365,2.742,2.7459,2.7485,2.751,2.7557,2.7619,2.759,2.7612,2.7601,2.7643,2.7739,2.7607,2.7608,2.7632,2.7848,2.7872,2.789,2.7723,2.7726,2.7728,2.7846,0,2.7368,2.7461,2.7447,2.7538,2.7581,2.7546,2.7594,2.7614,2.7617,2.7654,2.7657,2.7701,2.766,2.7673,2.7713,2.7719,2.7782,2.771,2.7768,2.7771,2.7763,2.791,2.7935,2.8046,2.7861,2.7864,2.7866,0,2.7512,2.7541,2.7636,2.7652,2.7669,2.7713,2.7747,2.7783,2.7806,2.7804,2.7829,2.7811,2.7868,2.7814,2.7894,2.7845,2.7869,2.7875,2.7879,2.7885,2.7824,2.7921,2.8081,2.8098,2.7889,2.7887,2.7886,0,2.7617,2.7679,2.7745,2.7758,2.7778,2.7809,2.782,2.7838,2.7863,2.7894,2.791,2.7948,2.7969,2.8,2.7993,2.7954,2.8075,2.802,2.8077,2.8078,2.8105,2.8103,2.8272,2.8119,2.8119,2.8118,2.8118,0,2.7745,2.7805,2.7792,2.7832,2.7899,2.7882,2.7949,2.7955,2.7973,2.8015,2.7988,2.8029,2.8016,2.8057,2.8052,2.812,2.813,2.8132,2.813,2.8134,2.8134,2.815,2.8142,2.8123,2.8122,2.8121,2.812,0,2.7873,2.7866,2.7935,2.7948,2.7952,2.8001,2.8013,2.8052,2.8051,2.8105,2.8117,2.8118,2.8164,2.816,2.8213,2.821,2.8294,2.8283,2.8286,2.8283,2.8341,2.8336,2.8526,2.855,2.8381,2.8382,2.8384,0,2.7955,2.8,2.8017,2.8043,2.8054,2.8096,2.812,2.8106,2.8133,2.8162,2.8198,2.8242,2.8276,2.8352,2.8359,2.84,2.839,2.8453,2.8396,2.8399,2.8392,2.8389,2.8394,2.8465,2.8467,2.8469,2.847,0,2.8103,2.8097,2.8132,2.8167,2.8196,2.8223,2.8247,2.827,2.8259,2.8291,2.8337,2.8363,2.8416,2.8461,2.8499,2.8512,2.849,2.8488,2.8503,2.8509,2.8509,2.851,2.8317,2.8484,2.8482,2.8481,2.848,2.848,2.8211,2.825,2.8267,2.8308,2.8324,2.8348,2.8385,2.8389,2.8426,2.8467,2.8457,2.851,2.8532,2.8582,2.8598,2.864,2.8618,2.864,2.8646,2.8651,2.8658,2.8501,2.8647,2.8647,2.8647,2.8646,2.8646,0,2.8358,2.8367,2.8404,2.8438,2.847,2.8445,2.847,2.85,2.8546,2.8567,2.8601,2.8655,2.8698,2.8708,2.8749,2.8782,2.8773,2.8793,2.8791,2.8795,2.8676,2.8659,2.88,2.88,2.88,2.88,2.88,2.88,2.8438,2.8502,2.8498,2.8571,2.8581,2.863,2.8648,2.867,2.8687,2.8748,2.8782,2.8788,2.8805,2.8848,2.8887,2.8889,2.8906,2.8931,2.8929,2.8818,2.8803,2.8788,2.8772,2.8935,2.8935,2.9044,2.9045,2.9046]},{"header":{"parameterUnit":"m.s-1","parameterCategory":1,"la1":30.2991,"la2":30.254,"lo1":-89.0895,"lo2":-89.0444,"dy":0.0017,"dx":0.0017,"nx":28,"ny":28,"refTime":"2025-01-19T09:00:00:Z","depth":0,"parameterNumber":3,"parameterNumberName":"V-component_of_WINDS"},"data":[0,0,0,0,0,0,0,0,0,0,0,0,0,0,0,0,0,0,0,0,0,0,0,0,0,0,0,0,0,0,0,0,0,0,0,0,0,0,0,0,0,0,0,0,0,0,0,0,0,0,0,0,0,0,0,0,0,0,-2.3023,-2.3022,0,-2.292,-2.2919,-2.2918,-2.2951,-2.2953,-2.2956,-2.2958,-2.2845,-2.284,-2.2835,0,0,0,0,0,0,0,0,0,0,0,0,0,-2.3243,-2.3239,-2.3023,-2.3022,-2.3021,-2.292,-2.2919,-2.2917,-2.2951,-2.2953,-2.2956,-2.2959,-2.2847,-2.2841,-2.2835,0,0,0,0,0,0,0,0,0,0,0,0,0,-2.3144,-2.3237,-2.3024,-2.3025,-2.3025,-2.2921,-2.2919,-2.2917,-2.295,-2.2953,-2.2957,-2.296,-2.2849,-2.2841,-2.2834,-2.272,0,0,-2.281,-2.2807,0,0,0,0,0,0,0,0,-2.315,-2.3136,-2.3026,-2.3025,-2.3024,-2.2952,-2.2955,-2.2851,-2.2949,-2.2978,-2.2958,-2.2962,-2.2877,-2.2868,-2.2841,-2.2714,-2.2709,-2.281,-2.2805,-2.2802,-2.28,0,0,0,0,0,0,0,-2.3156,-2.3141,-2.2982,-2.3025,-2.3023,-2.3029,-2.3019,-2.2935,-2.291,-2.2976,-2.2978,-2.2966,-2.2877,-2.2848,-2.2838,-2.2708,-2.281,-2.2803,-2.2798,-2.2796,-2.2481,-2.2478,0,0,0,0,0,0,-2.3165,-2.3146,-2.2986,-2.2979,-2.3097,-2.3023,-2.3011,-2.2972,-2.2911,-2.2905,-2.2963,-2.2968,-2.2859,-2.2847,-2.2834,-2.2696,-2.2802,-2.2795,-2.279,-2.2485,-2.2481,-2.2476,0,0,0,0,0,0,-2.317,-2.315,-2.299,-2.3063,-2.3043,-2.3015,-2.2971,-2.2968,-2.2939,-2.2901,-2.2896,-2.2938,-2.2862,-2.2845,-2.2748,-2.2693,-2.2791,-2.2784,-2.249,-2.2484,-2.2478,-2.242,0,0,0,0,0,0,-2.3176,-2.3152,-2.311,-2.3062,-2.3039,-2.2907,-2.2967,-2.2963,-2.2926,-2.2931,-2.2877,-2.2871,-2.2863,-2.2759,-2.2741,-2.2684,-2.2778,-2.2494,-2.2487,-2.248,-2.2426,-2.2413,-2.2401,0,0,0,0,0,-2.3183,-2.3096,-2.3108,-2.3088,-2.2986,-2.2904,-2.2891,-2.2885,-2.2922,-2.2878,-2.2854,-2.2873,-2.2702,-2.2749,-2.2728,-2.2669,-2.2498,-2.2489,-2.2481,-2.2432,-2.2415,-2.2401,0,0,0,0,0,0,-2.3136,-2.309,-2.3102,-2.2997,-2.2954,-2.291,-2.2855,-2.2868,-2.2812,-2.2819,-2.2813,-2.28,-2.27,-2.2675,-2.2728,-2.2555,-2.2605,-2.2592,-2.2575,-2.2559,-2.2546,-2.2554,-2.2772,0,0,0,0,0,-2.3113,-2.3052,-2.3015,-2.2925,-2.2904,-2.2883,-2.2846,-2.2846,-2.2801,-2.2782,-2.2751,-2.2705,-2.2641,-2.2598,-2.2537,-2.2423,-2.241,-2.2371,-2.2359,-2.2349,-2.2337,-2.2273,-2.2255,-2.2449,-2.2449,-2.2449,0,0,-2.3066,-2.3033,-2.2994,-2.2915,-2.2882,-2.2817,-2.2867,-2.2796,-2.2747,-2.2771,-2.2678,-2.2653,-2.26,-2.2494,-2.2446,-2.247,-2.2281,-2.2338,-2.233,-2.2324,-2.2263,-2.2245,-2.2228,-2.2443,-2.2444,-2.2445,0,0,-2.2946,-2.2915,-2.2838,-2.2804,-2.2754,-2.2741,-2.2722,-2.2675,-2.266,-2.2568,-2.2584,-2.2524,-2.2414,-2.2376,-2.2342,-2.2207,-2.2221,-2.2187,-2.212,-2.2058,-2.2043,-2.203,-2.1981,-2.1963,-2.2176,-2.2176,-2.2176,0,-2.2892,-2.2797,-2.2795,-2.2723,-2.2687,-2.2708,-2.2628,-2.2594,-2.2525,-2.2499,-2.2528,-2.239,-2.2356,-2.2241,-2.2208,-2.218,-2.2157,-2.2193,-2.2046,-2.2032,-2.202,-2.1973,-2.1954,-2.2172,-2.2172,-2.2173,-2.2173,0,-2.2733,-2.2667,-2.2609,-2.2545,-2.2503,-2.2426,-2.2412,-2.2368,-2.2371,-2.2354,-2.2258,-2.2218,-2.215,-2.2122,-2.2124,-2.2006,-2.2023,-2.2049,-2.2099,-2.1997,-2.1953,-2.1935,-2.2166,-2.2168,-2.2169,-2.217,0,0,-2.258,-2.2517,-2.2495,-2.2466,-2.2413,-2.236,-2.2284,-2.2219,-2.2181,-2.2133,-2.2068,-2.1974,-2.1998,-2.196,-2.1957,-2.1903,-2.1797,-2.1935,-2.1934,-2.191,-2.1664,-2.1645,-2.1624,-2.1807,-2.1803,-2.1801,-2.1668,0,-2.2455,-2.2325,-2.2321,-2.22,-2.2138,-2.2156,-2.209,-2.2048,-2.203,-2.1973,-2.1952,-2.1886,-2.1922,-2.1899,-2.1847,-2.1821,-2.1748,-2.1831,-2.1744,-2.1741,-2.1757,-2.1601,-2.158,-2.1457,-2.1651,-2.1648,-2.1646,0,-2.2292,-2.2241,-2.2115,-2.207,-2.2044,-2.1984,-2.1924,-2.187,-2.1822,-2.1813,-2.177,-2.1775,-2.1695,-2.1749,-2.1637,-2.1694,-2.1658,-2.164,-2.1635,-2.1626,-2.1687,-2.1587,-2.1418,-2.1399,-2.1619,-2.1621,-2.1623,0,-2.2193,-2.2092,-2.2004,-2.1978,-2.1923,-2.1881,-2.1856,-2.1812,-2.1773,-2.1719,-2.1693,-2.163,-2.1595,-2.1545,-2.1532,-2.1572,-2.142,-2.1473,-2.1408,-2.1408,-2.1375,-2.1377,-2.1197,-2.1353,-2.1353,-2.1353,-2.1354,0,-2.2054,-2.1975,-2.1958,-2.1903,-2.1816,-2.1811,-2.1724,-2.1701,-2.1662,-2.1602,-2.1613,-2.1555,-2.1542,-2.1482,-2.1471,-2.138,-2.1364,-2.1352,-2.135,-2.1351,-2.1352,-2.1327,-2.1334,-2.1349,-2.135,-2.1351,-2.1351,0,-2.1927,-2.1913,-2.1817,-2.1774,-2.1761,-2.1698,-2.1659,-2.1606,-2.1589,-2.1513,-2.1494,-2.1467,-2.1396,-2.1379,-2.1294,-2.1286,-2.1178,-2.1185,-2.1195,-2.1195,-2.1131,-2.1137,-2.0927,-2.0899,-2.1075,-2.1073,-2.1072,0,-2.1839,-2.178,-2.173,-2.1692,-2.1665,-2.1603,-2.1563,-2.1555,-2.1513,-2.1455,-2.1408,-2.1339,-2.1283,-2.1169,-2.114,-2.1074,-2.1079,-2.101,-2.1069,-2.1071,-2.1076,-2.108,-2.1073,-2.0998,-2.0996,-2.0995,-2.0994,0,-2.1684,-2.168,-2.1624,-2.1564,-2.1517,-2.147,-2.1424,-2.1391,-2.1377,-2.1329,-2.1258,-2.1215,-2.1129,-2.1059,-2.0994,-2.0965,-2.0976,-2.0976,-2.0957,-2.0957,-2.0965,-2.0959,-2.1164,-2.098,-2.0981,-2.0982,-2.0983,-2.0984,-2.1574,-2.1521,-2.1478,-2.1415,-2.138,-2.1337,-2.1285,-2.1262,-2.1204,-2.1135,-2.1133,-2.1055,-2.1008,-2.0921,-2.0889,-2.0826,-2.0847,-2.082,-2.0813,-2.0806,-2.08,-2.0976,-2.0814,-2.0814,-2.0815,-2.0815,-2.0815,0,-2.1418,-2.1392,-2.1334,-2.1271,-2.122,-2.1237,-2.1188,-2.1143,-2.1076,-2.1032,-2.0977,-2.0894,-2.0827,-2.0793,-2.0726,-2.0682,-2.0685,-2.0665,-2.0667,-2.066,-2.0786,-2.0809,-2.0663,-2.0663,-2.0663,-2.0663,-2.0663,-2.0663,-2.1332,-2.1244,-2.1235,-2.1129,-2.1102,-2.1028,-2.0998,-2.0958,-2.0923,-2.0831,-2.0776,-2.0755,-2.0714,-2.0644,-2.0582,-2.0574,-2.0548,-2.0524,-2.0518,-2.0636,-2.0651,-2.0666,-2.0687,-2.0519,-2.0519,-2.0397,-2.0396,-2.0395]}]]